sat.trackr.live / text

‹ back to catalog

STARLINK-36336

NORAD 67901 · 2026-035Y

PAYLOAD ACTIVE UNKNOWN

§ Identity

Operator
Country
US
Launch date
2026-02-21
Launch site
AFWTR
Launch vehicle
Mass (kg)
RCS (m²)

Purposes: comms

External: N2YO · Heavens-Above · Gunter

§ Orbital elements

Epoch: 2026-09-19T14:00:19.824192Z

Period
93.90 min
Inclination
97.2875°
Eccentricity
0.0001405
Mean motion
15.33469781 rev/d
Perigee alt
464.5 km
Apogee alt
466.4 km
Semi-major
6,843.6 km
B*
6.2437e-4
RAAN
194.4581°
Arg perigee
81.3868°
Mean anomaly
278.7534°
Rev number
3,370

§ Raw data

STARLINK-363361 67901U 26035Y   26262.58356278  .00020152  00000+0  62437-3 0  99952 67901  97.2875 194.4581 0001405  81.3868 278.7534 15.33469781 33705

JSON: /api/v1/satellites/67901 · /tle

For live sub-satellite position, see the globe view (requires WebGL).

§ Visibility from observer

Set your observer location to see the next 7 days of passes ≥ 10°. The values pass through the URL so the page stays shareable.

No JS? Fill the form by hand. The geolocation button needs JavaScript.